Home   Weather   Rosso   Past weeks

Flag for Mauritania Past Weather in Rosso, Mauritania — Yesterday and Last 2 Weeks

Now
86 °F

Partly sunny.


Feels Like: 99 °F
Forecast: 81 / 95 °F
Wind: 5 mph from Southwest

Location: Saint Airport-Louis

Current Time: Aug 18, 2017 at 11:13:45 am

Latest Report: Aug 18, 2017 at 10:00 am


Visibility: N/A

Pressure: 29.95 "Hg

Humidity: 79%

Dew Point: 79 °F

Location of RossoLocation

Past Weather in Rosso — Graph

°F

Rosso Temperature Yesterday

Maximum temperature yesterday: 91 °F (at 12:00 pm)
Minimum temperature yesterday: 81 °F (at 3:00 am)
Average temperature yesterday: 86 °F

High & Low Weather Summary for the Past Weeks

 TemperatureHumidityPressure
High91 °F (Aug 15, 1:00 pm)100% (Aug 9, 3:00 am)30.01 "Hg (Aug 9, 3:00 am)
Low73 °F (Aug 13, 7:00 am)45% (Aug 5, 7:00 am)29.80 "Hg (Aug 6, 2:00 pm)
Average84 °F79%29.89 "Hg
* Reported Aug 3 10:00 am — Aug 18 10:00 am, Rosso. Weather by CustomWeather, © 2017

Note: Actual official high and low records may vary slightly from our data, if they occured in-between our weather recording intervals... More about our weather records

Advertising

Rosso Weather History for the Previous 24 Hours

Scroll right to see more
 ConditionsComfort  
Time TempWeatherWind HumidityBarometerVisibility
10:00 am
Fri, Aug 18
86 °FPartly sunny.5 mph79%29.95 "HgN/A
9:00 am86 °FPartly sunny.No wind79%29.92 "HgN/A
8:00 am84 °FScattered clouds.7 mph84%29.89 "HgN/A
6:00 am82 °FPassing clouds.12 mph89%29.89 "HgN/A
5:00 am82 °FPassing clouds.9 mph89%29.86 "HgN/A
4:00 am82 °FPassing clouds.5 mph89%29.86 "HgN/A
3:00 am82 °FPassing clouds.9 mph89%29.86 "HgN/A
2:00 am82 °FPassing clouds.7 mph89%29.89 "HgN/A
1:00 am84 °FPassing clouds.9 mph84%29.89 "HgN/A
12:00 am84 °FPassing clouds.9 mph84%29.92 "HgN/A
11:00 pm
Thu, Aug 17
84 °FPassing clouds.7 mph84%29.92 "HgN/A
10:00 pm84 °FClear.9 mph79%29.92 "Hg10 mi
9:00 pm84 °FClear.9 mph79%29.89 "Hg10 mi
8:00 pm86 °FClear.7 mph70%29.86 "Hg10 mi
7:00 pm86 °FSunny.7 mph75%29.86 "Hg10 mi
6:00 pm88 °FPassing clouds.7 mph70%29.86 "HgN/A
5:00 pm90 °FScattered clouds.9 mph71%29.86 "HgN/A
4:00 pm90 °FScattered clouds.9 mph71%29.86 "HgN/A
3:00 pm90 °FScattered clouds.7 mph71%29.89 "HgN/A
1:00 pm91 °FPassing clouds.7 mph67%29.92 "HgN/A
12:00 pm91 °FPassing clouds.5 mph67%29.92 "HgN/A
11:00 am90 °FPassing clouds.5 mph71%29.92 "HgN/A
Weather by CustomWeather, © 2017

See weather overviewHow to use our weather pages